Home   Weather   San Francisco   Past weeks

Flag for USA Past Weather in San Francisco, California, USA — Yesterday and Last 2 Weeks

Now
68 °F

Passing clouds.


Feels Like: 68 °F
Forecast: 55 / 66 °F
Wind: 23 mph from West

Location: San Francisco International Airport

Current Time: Oct 1, 2016 at 3:20:54 PM

Latest Report: Oct 1, 2016 at 2:56 PM


Visibility: 10 mi

Pressure: 30.08 "Hg

Humidity: 51%

Dew Point: 49 °F

Location of San FranciscoLocation

Past Weather in San Francisco — Graph

°F

San Francisco Temperature Yesterday

Maximum temperature yesterday: 64 °F (at 12:56 PM)
Minimum temperature yesterday: 54 °F (at 12:56 AM)
Average temperature yesterday: 58 °F

High & Low Weather Summary for the Past Weeks

 TemperatureHumidityPressure
High93 °F (Sep 25, 3:56 PM)93% (Sep 17, 1:56 AM)30.16 "Hg (Sep 17, 1:56 AM)
Low53 °F (Sep 23, 2:56 AM)16% (Sep 25, 5:56 PM)29.82 "Hg (Sep 27, 5:56 PM)
Average64 °F66%30.00 "Hg
* Reported Sep 16 1:56 PM — Oct 1 1:56 PM, San Francisco, Weather by CustomWeather, © 2016

Note: Actual official high and low records may vary slightly from our data, if they occured in-between our weather recording intervals... More about our weather records

Advertising

San Francisco Weather History for the Previous 24 Hours

Scroll right to see more
 ConditionsComfort  
Time TempWeatherWind HumidityBarometerVisibility
1:56 PM
Sat, Oct 1
68 °FPassing clouds.21 mph51%30.10 "Hg10 mi
12:56 PM68 °FPassing clouds.20 mph51%30.13 "Hg10 mi
11:56 AM67 °FPassing clouds.17 mph55%30.14 "Hg10 mi
10:56 AM65 °FPassing clouds.14 mph56%30.15 "Hg10 mi
9:56 AM63 °FPassing clouds.7 mph63%30.15 "Hg10 mi
8:56 AM60 °FPassing clouds.10 mph72%30.15 "Hg10 mi
7:56 AM56 °FPassing clouds.7 mph84%30.14 "Hg9 mi
6:56 AM54 °FPassing clouds.10 mph86%30.14 "Hg10 mi
5:56 AM56 °FPassing clouds.6 mph84%30.13 "Hg10 mi
4:56 AM55 °FPassing clouds.7 mph87%30.12 "Hg10 mi
3:56 AM56 °FPassing clouds.13 mph84%30.12 "Hg10 mi
2:56 AM56 °FClear.16 mph84%30.13 "Hg10 mi
1:56 AM56 °FClear.17 mph81%30.13 "Hg10 mi
12:56 AM56 °FPassing clouds.14 mph81%30.12 "Hg10 mi
11:56 PM
Fri, Sep 30
57 °FPassing clouds.17 mph78%30.12 "Hg10 mi
10:56 PM57 °FPassing clouds.14 mph78%30.11 "Hg10 mi
9:56 PM57 °FPassing clouds.22 mph78%30.10 "Hg10 mi
8:56 PM58 °FPassing clouds.17 mph72%30.09 "Hg10 mi
7:56 PM58 °FPassing clouds.24 mph75%30.08 "Hg10 mi
6:56 PM59 °FPassing clouds.28 mph69%30.09 "Hg10 mi
5:56 PM61 °FPassing clouds.25 mph65%30.09 "Hg10 mi
4:56 PM62 °FPassing clouds.22 mph60%30.09 "Hg10 mi
3:56 PM63 °FPassing clouds.23 mph58%30.10 "Hg10 mi
Weather by CustomWeather, © 2016

See weather overviewHow to use our weather pages